This is the latest recevied weather packets stored in our database for station/object SP4IM-13. If no packets are shown the sender has not sent any weather packets the latest 1 day(s).
| Time | Temp. | Humidity | Pressure | Rain* | Wind** | Luminosity | Snow |
|---|---|---|---|---|---|---|---|
| 1777993802 | 21.67° C | 63% | 1005 hPa | - | 1.79 m/s, 104° | - | - |
| 1777993202 | 21.67° C | 59% | 1006 hPa | - | 1.79 m/s, 104° | - | - |
| 1777992602 | 22.22° C | 59% | 1005 hPa | - | 2.24 m/s, 127° | - | - |
| 1777992002 | 22.78° C | 59% | 1005 hPa | - | 1.79 m/s, 120° | - | - |
| 1777991404 | 23.33° C | 58% | 1005 hPa | - | 1.79 m/s, 115° | - | - |
| 1777990802 | 24.44° C | 55% | 1005 hPa | - | 2.24 m/s, 117° | - | - |
| 1777990203 | 25° C | 52% | 1005 hPa | - | 1.79 m/s, 120° | - | - |
| 1777989603 | 25.56° C | 48% | 1005 hPa | - | 2.24 m/s, 126° | - | - |
| 1777989004 | 25.56° C | 45% | 1005 hPa | - | 1.34 m/s, 116° | - | - |
| 1777988403 | 26.11° C | 45% | 1006 hPa | - | 1.34 m/s, 115° | - | - |
| 1777987803 | 26.67° C | 46% | 1006 hPa | - | 1.34 m/s, 118° | - | - |
| 1777987202 | 26.67° C | 43% | 1006 hPa | - | 1.34 m/s, 114° | - | - |
| 1777986602 | 27.22° C | 41% | 1006 hPa | - | 0.89 m/s, 109° | - | - |
| 1777986003 | 27.22° C | 41% | 1006 hPa | - | 0.89 m/s, 72° | - | - |
| 1777985402 | 27.78° C | 40% | 1006 hPa | - | 0.89 m/s, 90° | - | - |
| 1777984802 | 27.78° C | 39% | 1006 hPa | - | 0.89 m/s, 333° | - | - |
| 1777984202 | 28.33° C | 39% | 1006 hPa | - | 0.89 m/s, 0° | - | - |
| 1777983603 | 28.33° C | 39% | 1006 hPa | - | 1.34 m/s, 289° | - | - |
| 1777983002 | 27.78° C | 39% | 1006 hPa | - | 0.89 m/s, 293° | - | - |
| 1777982404 | 27.78° C | 40% | 1006 hPa | - | 0.89 m/s, 90° | - | - |
| 1777981803 | 27.22° C | 41% | 1006 hPa | - | 0.89 m/s, 90° | - | - |
| 1777981202 | 27.22° C | 41% | 1006 hPa | - | 1.34 m/s, 121° | - | - |
| 1777980603 | 27.22° C | 41% | 1006 hPa | - | 0.89 m/s, 122° | - | - |
| 1777980002 | 27.22° C | 42% | 1007 hPa | - | 0.89 m/s, 123° | - | - |
| 1777979403 | 27.22° C | 42% | 1007 hPa | - | 0.89 m/s, 270° | - | - |
* Rain since midnight (hover to see other rain measurements)
** Current wind speed in m/s (hover to see current wind gust speed)